Martinsville, VA

11:02 AM EDT on April 24, 2017 (GMT -0400)
Blue Ridge

Weather History for KMTV - September, 2013

Change the Weather History Date:

Sunday, September 8, 2013

  Actual Average (KINT) Record (KINT)
Temperature  
Mean Temperature 72 °F -  
Max Temperature 87 °F 79 °F 97 °F (1990)
Min Temperature 57 °F 61 °F 37 °F (1996)
Cooling Degree Days 7    
Growing Degree Days 22 (Base 50)    
Moisture  
Dew Point 64 °F    
Average Humidity 79    
Maximum Humidity 98    
Minimum Humidity 44    
Precipitation  
Precipitation 0.00 in - - ()
Sea Level Pressure  
Sea Level Pressure 30.01 in    
Wind  
Wind Speed 1 mph (NE)    
Max Wind Speed 8 mph    
Max Gust Speed -    
Visibility 7 miles    
Events      
Averages and records for this station are not official NWS values.
T = Trace of Precipitation, MM = Missing Value Source: NWS Daily Summary

Daily Weather History Graph

Daily Weather History Graph

Search for Another Location

Airport or City:

Trip Planner

Search our weather history database for the weather conditions in past years. The results will help you decide how hot, cold, wet, or windy it might be!

Date:

Astronomy

Sep. 08, 2013 Rise Set
Actual Time 6:57 AM EDT 7:37 PM EDT
Civil Twilight 6:30 AM EDT 8:03 PM EDT
Nautical Twilight 6:00 AM EDT 8:34 PM EDT
Astronomical Twilight 5:28 AM EDT 9:06 PM EDT
Moon 10:06 AM EDT (9/8) 9:19 PM EDT (9/8)
Length of Visible Light 13h 32m
Length of Day
12h 40m
Waxing Crescent, 11% of the Moon is Illuminated
Sep 8
Waxing Crescent
Sep 12
First Quarter
Sep 19
Full
Sep 26
Last Quarter
Oct 4
New

Hourly Weather History & Observations

Time (EDT) Temp. Heat Index Dew Point Humidity Pressure Visibility Wind Dir Wind Speed Gust Speed Precip Events Conditions
12:15 AM 62.6 °F - 61.7 °F 97% 30.03 in 2.5 mi Calm Calm - N/A   Clear
12:35 AM 62.6 °F - 61.7 °F 97% 30.02 in 4.0 mi Calm Calm - N/A   Clear
12:55 AM 62.6 °F - 61.9 °F 97% 30.03 in 4.0 mi Calm Calm - N/A   Scattered Clouds
1:15 AM 62.2 °F - 61.3 °F 97% 30.02 in 3.0 mi Calm Calm - N/A   Scattered Clouds
1:35 AM 61.0 °F - 60.1 °F 97% 30.03 in 4.0 mi Calm Calm - N/A   Clear
1:55 AM 60.8 °F - 60.1 °F 97% 30.02 in 3.0 mi Calm Calm - N/A   Clear
2:15 AM 60.1 °F - 59.2 °F 97% 30.02 in 2.5 mi Calm Calm - N/A   Clear
2:35 AM 60.3 °F - 59.5 °F 97% 30.02 in 1.0 mi Calm Calm - N/A   Mostly Cloudy
2:55 AM 59.2 °F - 58.6 °F 98% 30.02 in 3.0 mi Calm Calm - N/A   Scattered Clouds
3:15 AM 59.4 °F - 58.8 °F 98% 30.02 in 3.0 mi Calm Calm - N/A   Clear
3:35 AM 59.0 °F - 58.3 °F 97% 30.02 in 3.0 mi Calm Calm - N/A   Clear
3:55 AM 58.3 °F - 57.6 °F 97% 30.02 in 2.5 mi Calm Calm - N/A   Scattered Clouds
4:15 AM 57.7 °F - 57.0 °F 97% 30.01 in 2.5 mi Calm Calm - N/A   Clear
4:35 AM 57.6 °F - 56.8 °F 97% 30.01 in 3.0 mi Calm Calm - N/A   Scattered Clouds
4:55 AM 57.2 °F - 56.5 °F 97% 30.01 in 2.5 mi Calm Calm - N/A   Scattered Clouds
5:15 AM 57.9 °F - 57.4 °F 98% 30.01 in 3.0 mi Calm Calm - N/A   Clear
5:35 AM 57.6 °F - 57.0 °F 98% 30.01 in 5.0 mi Calm Calm - N/A   Clear
5:55 AM 57.9 °F - 57.0 °F 97% 30.01 in 5.0 mi Calm Calm - N/A   Clear
6:15 AM 58.1 °F - 57.4 °F 97% 30.02 in 5.0 mi Calm Calm - N/A   Clear
6:35 AM 58.1 °F - 57.6 °F 98% 30.02 in 4.0 mi Calm Calm - N/A   Clear
6:55 AM 58.1 °F - 57.4 °F 97% 30.01 in 4.0 mi Calm Calm - N/A   Clear
7:15 AM 58.1 °F - 57.2 °F 97% 30.02 in 3.0 mi Calm Calm - N/A   Clear
7:35 AM 58.3 °F - 57.6 °F 97% 30.02 in 5.0 mi Calm Calm - N/A   Clear
7:55 AM 59.9 °F - 59.0 °F 97% 30.02 in 5.0 mi Calm Calm - N/A   Clear
8:15 AM 62.6 °F - 60.4 °F 93% 30.02 in 10.0 mi Calm Calm - N/A   Clear
8:35 AM 64.2 °F - 61.9 °F 92% 30.02 in 10.0 mi Calm Calm - N/A   Clear
8:55 AM 67.5 °F - 63.3 °F 87% 30.02 in 10.0 mi Calm Calm - N/A   Clear
9:15 AM 70.5 °F - 63.7 °F 79% 30.02 in 10.0 mi Calm Calm - N/A   Clear
9:35 AM 73.9 °F - 64.4 °F 72% 30.02 in 10.0 mi Calm Calm - N/A   Clear
9:55 AM 76.3 °F - 64.0 °F 66% 30.02 in 10.0 mi NNW 4.6 mph - N/A   Clear
10:15 AM 77.5 °F - 64.2 °F 63% 30.02 in 10.0 mi North 5.8 mph - N/A   Clear
10:35 AM 79.3 °F - 65.1 °F 62% 30.02 in 10.0 mi Calm Calm - N/A   Clear
10:55 AM 80.8 °F 82.5 °F 64.8 °F 58% 30.02 in 10.0 mi Calm Calm - N/A   Clear
11:15 AM 81.9 °F 83.7 °F 65.1 °F 57% 30.02 in 10.0 mi North 5.8 mph - N/A   Clear
11:35 AM 83.1 °F 84.8 °F 65.1 °F 54% 30.02 in 10.0 mi NNW 8.1 mph - N/A   Mostly Cloudy
11:55 AM 81.9 °F 83.9 °F 65.7 °F 58% 30.02 in 10.0 mi Calm Calm - N/A   Mostly Cloudy
12:15 PM 84.4 °F 86.3 °F 65.3 °F 53% 30.01 in 10.0 mi Calm Calm - N/A   Scattered Clouds
12:35 PM 85.3 °F 87.4 °F 65.8 °F 52% 30.01 in 10.0 mi ENE 5.8 mph - N/A   Clear
12:55 PM 85.6 °F 87.4 °F 65.3 °F 50% 30.00 in 10.0 mi NE 3.5 mph - N/A   Clear
1:15 PM 86.5 °F 88.1 °F 64.8 °F 48% 30.00 in 10.0 mi ENE 4.6 mph - N/A   Scattered Clouds
1:35 PM 86.2 °F 86.8 °F 62.8 °F 45% 29.99 in 10.0 mi Calm Calm - N/A   Scattered Clouds
1:55 PM 87.6 °F 88.8 °F 63.7 °F 45% 30.00 in 10.0 mi East 4.6 mph - N/A   Mostly Cloudy
2:15 PM 85.1 °F 87.1 °F 65.5 °F 52% 30.00 in 10.0 mi NE 3.5 mph - N/A   Overcast
2:35 PM 84.0 °F 86.0 °F 65.8 °F 54% 29.99 in 10.0 mi Calm Calm - N/A   Overcast
2:55 PM 84.7 °F 86.6 °F 65.5 °F 52% 30.00 in 10.0 mi East 3.5 mph - N/A   Mostly Cloudy
3:15 PM 85.8 °F 86.8 °F 63.7 °F 47% 29.99 in 10.0 mi Calm Calm - N/A   Mostly Cloudy
3:35 PM 86.0 °F 87.3 °F 64.4 °F 48% 29.98 in 10.0 mi Calm Calm - N/A   Mostly Cloudy
3:55 PM 86.9 °F 87.8 °F 63.0 °F 45% 29.98 in 10.0 mi Calm Calm - N/A   Scattered Clouds
4:15 PM 87.4 °F 88.8 °F 64.0 °F 46% 29.98 in 10.0 mi Calm Calm - N/A   Clear
4:35 PM 87.3 °F 88.0 °F 63.1 °F 44% 29.98 in 10.0 mi North 3.5 mph - N/A   Clear
4:55 PM 86.5 °F 88.7 °F 66.0 °F 50% 29.98 in 10.0 mi Calm Calm - N/A   Scattered Clouds
5:15 PM 86.9 °F 88.9 °F 65.5 °F 49% 29.98 in 10.0 mi Calm Calm - N/A   Scattered Clouds
5:35 PM 86.2 °F 88.4 °F 66.0 °F 51% 29.97 in 10.0 mi Calm Calm - N/A   Mostly Cloudy
5:55 PM 85.6 °F 87.9 °F 66.4 °F 52% 29.97 in 10.0 mi Calm Calm - N/A   Scattered Clouds
6:15 PM 84.2 °F 87.3 °F 68.2 °F 58% 29.98 in 10.0 mi Calm Calm - N/A   Clear
6:35 PM 81.1 °F 85.2 °F 71.4 °F 72% 29.99 in 10.0 mi Calm Calm - N/A   Clear
6:55 PM 78.4 °F - 72.3 °F 81% 29.99 in 10.0 mi Calm Calm - N/A   Clear
7:15 PM 77.4 °F - 72.1 °F 84% 29.99 in 10.0 mi Calm Calm - N/A   Mostly Cloudy
7:35 PM 76.6 °F - 71.8 °F 85% 29.99 in 10.0 mi Calm Calm - N/A   Overcast
7:55 PM 74.8 °F - 71.6 °F 90% 29.99 in 7.0 mi Calm Calm - N/A   Mostly Cloudy
8:15 PM 73.6 °F - 70.7 °F 91% 30.00 in 7.0 mi Calm Calm - N/A   Clear
8:35 PM 72.0 °F - 70.0 °F 93% 30.00 in 5.0 mi Calm Calm - N/A   Scattered Clouds
8:55 PM 71.4 °F - 70.0 °F 95% 30.01 in 4.0 mi Calm Calm - N/A   Clear
9:15 PM 71.1 °F - 69.3 °F 94% 30.02 in 3.0 mi Calm Calm - N/A   Clear
9:35 PM 70.7 °F - 68.9 °F 94% 30.02 in 3.0 mi Calm Calm - N/A   Clear
9:55 PM 69.8 °F - 68.4 °F 95% 30.03 in 3.0 mi Calm Calm - N/A   Clear
10:15 PM 69.6 °F - 68.2 °F 95% 30.04 in 2.5 mi Calm Calm - N/A   Clear
10:35 PM 69.8 °F - 68.5 °F 96% 30.04 in 2.0 mi Calm Calm - N/A   Clear
10:55 PM 68.9 °F - 67.5 °F 95% 30.05 in 2.5 mi Calm Calm - N/A   Clear
11:15 PM 68.0 °F - 66.7 °F 96% 30.05 in 1.2 mi Calm Calm - N/A   Mist
11:35 PM 68.0 °F - 66.6 °F 95% 30.05 in 1.2 mi Calm Calm - N/A   Mist
11:55 PM 67.1 °F - 66.0 °F 96% 30.06 in 1.0 mi Calm Calm - N/A   Mist